sat.trackr.live / text

‹ back to catalog

STARLINK-32479

NORAD 62148 · 2024-224K

PAYLOAD ACTIVE UNKNOWN

§ Identity

Operator
Country
US
Launch date
2024-11-30
Launch site
AFETR
Launch vehicle
Mass (kg)
RCS (m²)

Purposes: comms

External: N2YO · Heavens-Above · Gunter

§ Orbital elements

Epoch: 2026-05-25T03:33:46.903392Z

Period
94.27 min
Inclination
43.0027°
Eccentricity
0.0001103
Mean motion
15.27597460 rev/d
Perigee alt
482.2 km
Apogee alt
483.8 km
Semi-major
6,861.1 km
B*
6.3116e-4
RAAN
86.2878°
Arg perigee
259.0214°
Mean anomaly
101.0514°
Rev number
8,411

§ Raw data

STARLINK-324791 62148U 24224K   26145.14845953  .00017156  00000+0  63116-3 0  99912 62148  43.0027  86.2878 0001103 259.0214 101.0514 15.27597460 84118

JSON: /api/v1/satellites/62148 · /tle

For live sub-satellite position, see the globe view (requires WebGL).

§ Visibility from observer

Set your observer location to see the next 7 days of passes ≥ 10°. The values pass through the URL so the page stays shareable.

No JS? Fill the form by hand. The geolocation button needs JavaScript.